Track IRIDIUM 100 now! 10-day predictions IRIDIUM 100 is classified as:
1 42956U 17061B 24251.22452100 .00000925 00000-0 32303-3 0 9991 2 42956 86.3936 295.9770 0002196 93.9088 266.2359 14.34219057361905